Location: Augustenthal
(51.7167°N, 10.2833°E)
Time: 13:53:36
(UTC+00:00)

Daily predictions for brighter satellites

Satellite Brightness Start Highest point End
(mag) Time Altitude Azimuth Time Altitude Azimuth Time Altitude Azimuth
NOSS 3-4 (A) 4.4 19:40:23 10° NW 19:47:09 57° SW 19:54:40 10° SSE
NOSS 3-4 (C) 4.4 19:40:30 10° NW 19:47:16 57° SW 19:54:47 10° SSE
SPOT 3 Rocket 3.6 19:43:42 10° SSE 19:48:51 85° ENE 19:54:03 10° NNW
Cosmos 1933 Rocket 3.6 19:44:54 10° NNW 19:49:16 84° W 19:53:37 10° S
SJ 16-02 1.4 19:46:24 10° SSW 19:50:50 86° ESE 19:55:18 10° NNE
Cosmos 2297 4.4 19:46:30 10° SSE 19:51:29 33° ESE 19:56:28 10° NE
Iridium 4 Rocket 4.0 19:47:48 10° SSE 19:53:32 56° E 19:59:15 10° N
Tianhe-1 3.2 19:52:40 10° SSW 19:54:11 13° S 19:55:41 10° SE
Cosmos 1151 Rocket 4.3 19:50:02 10° SSW 19:54:14 45° WNW 19:58:30 10° N
Ariane Rocket 4.0 19:53:40 10° S 19:58:31 46° W 20:03:25 10° NNW
Gbstr 26 Del rocket 4.5 19:51:01 10° WNW 19:58:52 67° SSW 20:05:36 10° SE
ATLAS 2AS CENTAUR R/B 3.0 19:53:08 10° NW 20:00:34 73° SW 20:07:23 10° SSE
Cosmos 2082 Rocket 2.8 19:55:29 10° NW 20:00:57 54° WSW 20:06:25 10° S
Cosmos 1943 Rocket 3.0 19:57:22 10° SSE 20:02:10 30° ESE 20:06:58 10° NE
USA 215 3.7 19:57:05 10° ENE 20:03:34 67° NNW 20:10:02 10° W
BREEZE-M DEB (TANK) 3.8 19:52:06 10° WSW 20:04:12 87° SSE 20:07:28 10° ENE
Terra 3.0 20:00:13 10° ESE 20:04:19 30° ENE 20:08:26 10° N
Cosmos 1733 Rocket 4.4 20:00:43 10° N 20:04:21 25° ENE 20:07:57 10° SE
Cosmos 990 Rocket 4.2 20:00:39 10° S 20:05:42 50° ESE 20:10:47 10° NNE
Cosmos 1544 3.7 20:02:25 10° N 20:05:54 41° ENE 20:09:21 10° SSE
Meteor 1-11 Rocket 3.9 20:01:01 10° NNW 20:07:02 85° ENE 20:12:54 10° SSE
Cosmos 1340 Rocket 3.3 20:04:43 10° N 20:08:42 48° ENE 20:12:35 10° SSE
Cosmos 1898 Rocket 3.8 20:10:00 10° S 20:15:05 49° ESE 20:20:15 10° NNE
CZ-2C R/B 3.7 20:11:03 10° NNE 20:15:35 66° ESE 20:20:10 10° S
USA 245 2.1 20:18:58 12° SSE 20:21:05 85° WSW 20:23:44 10° NNW
ARIANE 5 R/B 2.6 20:18:53 10° SSE 20:23:10 74° ENE 20:27:31 10° NNW
Cosmos 1271 Rocket 3.2 20:20:12 10° SSW 20:24:11 66° WNW 20:28:10 10° N
Cosmos 2278 Rocket 3.3 20:22:48 10° SW 20:28:18 49° NW 20:33:48 10° NNE
Cosmos 1461 3.5 20:24:05 10° SSW 20:28:31 42° ESE 20:32:52 10° NE
Cosmos 1666 4.4 20:26:45 10° NNW 20:30:04 30° W 20:33:21 10° SSW
Cosmos 2369 Rocket 3.2 20:26:36 10° SSE 20:31:13 28° ESE 20:35:55 10° NE
Cosmos 1818 3.9 20:26:21 10° NW 20:31:47 63° SW 20:36:36 13° SSE
Cosmos 1536 3.1 20:32:06 10° NNW 20:36:08 69° W 20:40:06 10° S
ATLAS CENTAUR R/B 2.9 20:36:25 14° ESE 20:36:45 14° ESE 20:38:43 10° E
ERBS 3.4 20:35:16 10° WNW 20:38:13 30° SW 20:40:21 16° SSE
Cosmos 1238 Rocket 3.9 20:34:53 10° N 20:40:34 52° ENE 20:44:23 16° SSE
Cosmos 2154 Rocket 4.3 20:37:50 10° NNW 20:44:08 72° W 20:50:20 10° S
SPOT 5 3.1 20:39:51 13° SSE 20:44:33 83° ENE 20:49:57 10° NNW
Cosmos 962 Rocket 4.5 20:39:16 10° N 20:45:25 76° ENE 20:50:49 14° SSE
Nadezhda 1 Rocket 4.0 20:41:04 10° S 20:47:20 87° W 20:53:33 10° N
ERS-1 Rocket 3.0 20:49:06 14° SSE 20:53:27 84° WSW 20:58:32 10° NNW
Cosmos 1975 3.6 20:51:33 10° N 20:55:20 39° ENE 20:57:45 19° SE
Cosmos 1862 Rocket 4.0 20:54:15 18° SSE 20:57:07 43° E 21:01:14 10° NNE
ISS -3.9 20:54:38 10° WSW 20:58:00 74° SSE 21:01:22 10° E
Cosmos 967 Rocket 4.5 20:56:37 10° SW 21:02:53 89° SE 21:09:14 10° NE
JB-3 4.4 21:00:12 10° N 21:04:04 74° WNW 21:07:52 10° SSW
Spot 2 Rocket 4.3 21:00:39 10° S 21:05:28 47° W 21:10:21 10° NNW
Cosmos 1937 Rocket 3.5 21:01:15 10° SSW 21:06:25 89° ESE 21:11:40 10° NNE
Cosmos 1743 3.3 21:04:16 10° NNW 21:08:05 55° W 21:11:02 16° S
Cosmos 2228 Rocket 4.4 21:04:47 10° SW 21:09:00 40° WNW 21:13:17 10° N
Lacrosse 5 3.4 21:09:47 16° ESE 21:09:47 16° ESE 21:12:38 10° E
RESURS DK-1 2.4 21:07:13 10° NNW 21:11:25 80° NE 21:13:58 23° SE
Resurs 01 Rocket 4.2 21:11:42 10° SW 21:14:22 16° W 21:17:02 10° NW
Cosmos 1707 Rocket 3.9 21:14:45 10° SSW 21:19:03 68° WNW 21:23:30 10° N
Cosmos 2297 Rocket 4.4 21:15:34 10° NNW 21:19:40 20° NNE 21:23:47 10° ENE
Cosmos 2366 rocket 4.0 21:14:45 10° N 21:21:00 79° E 21:25:28 20° SSE
NOSS 2-1 (E) 4.5 21:20:20 10° NW 21:24:49 58° NE 21:30:12 14° ESE
Cosmos 1048 Rocket 4.0 21:20:57 10° NNW 21:26:17 79° ENE 21:29:35 23° SSE
Cosmos 1867 3.6 21:24:21 10° SSW 21:29:40 57° SE 21:35:02 10° NE
SJ 16-02 4.3 21:27:07 10° W 21:30:03 17° NW 21:33:00 10° N
Cosmos 2181 Rocket 3.9 21:25:49 17° S 21:30:43 79° E 21:36:52 10° NNE
DNEPR-1 R/B 4.3 21:25:13 10° SW 21:30:52 69° NW 21:35:36 10° NE
Meteor 2-4 Rocket 4.0 21:28:24 22° SSE 21:31:52 52° E 21:37:13 10° NNE
Meteor 1-19 Rocket 4.1 21:28:38 17° S 21:32:54 84° E 21:38:23 10° NNE
Cosmos 44 Rocket 3.5 21:29:40 10° NW 21:34:57 82° NE 21:38:15 23° SE
Cosmos 2297 4.5 21:29:51 10° SW 21:35:26 54° NW 21:41:01 10° NNE
BREEZE-M R/B 2.8 21:34:24 10° W 21:36:27 31° SSW 21:36:27 31° SSW
SL-27 R/B 2.4 21:33:25 10° NNW 21:36:46 70° ENE 21:38:02 35° SE
Cosmos 1833 4.2 21:32:07 10° NNW 21:37:55 84° WSW 21:41:31 24° SSE
COSMOS 2455 4.0 21:33:50 10° NNW 21:39:28 38° NE 21:45:03 10° ESE
Cosmos 372 Rocket 4.0 21:36:42 10° SSW 21:41:48 81° WNW 21:46:57 10° NNE
Terra 2.6 21:38:38 18° SSW 21:41:55 44° W 21:46:30 10° NNW
Cosmos 1733 Rocket 4.0 21:38:14 10° NNW 21:42:18 40° W 21:45:11 17° SSW
Cosmos 1943 Rocket 2.8 21:40:06 10° SW 21:45:38 58° NW 21:51:10 10° NNE
USA 215 3.9 21:39:50 10° E 21:46:13 57° N 21:52:36 10° WNW
Cosmos 1656 Rocket 3.6 21:46:53 19° SSW 21:50:46 66° ESE 21:56:18 10° NE
Okean 1 4.3 21:49:15 14° SW 21:52:24 44° WNW 21:56:14 10° N
Cosmos 2218 Rocket 4.3 21:47:19 10° NNW 21:53:34 64° W 21:58:01 20° S
ALOS 2 3.6 21:51:57 21° ESE 21:54:14 37° ENE 21:58:17 10° N
Cosmos 2098 4.1 21:53:12 10° N 21:56:13 88° ENE 21:57:07 44° S
Cosmos 494 Rocket 3.9 21:52:56 10° NNW 21:58:08 79° WSW 22:00:49 29° SSE
H-2A R/B 4.4 21:58:39 10° N 22:02:39 45° WNW 22:05:59 14° SW
Cosmos 1908 Rocket 3.9 21:59:57 10° NNW 22:04:23 62° W 22:06:34 29° SSW
Cosmos 2298 Rocket 4.0 22:02:56 22° SSW 22:06:22 79° ESE 22:11:42 10° NNE
Cosmos 1461 4.4 22:03:11 10° WSW 22:07:39 42° NW 22:12:00 10° NE
Nadezhda 3 Rocket 4.1 22:06:38 26° SSE 22:10:06 61° E 22:16:11 10° NNE
Cosmos 1733 4.4 22:07:10 10° N 22:10:38 32° ENE 22:12:00 25° ESE
NOSS 2-1 (C) 4.1 22:06:28 10° NW 22:11:07 77° SW 22:14:45 26° SE
Meteor 1-13 Rocket 4.4 22:10:24 29° SSE 22:13:06 57° E 22:18:31 10° NNE
Cosmos 2369 Rocket 2.6 22:09:17 10° SW 22:14:51 62° NW 22:20:30 10° NNE
ATLAS CENTAUR R/B 1.1 22:12:29 19° SW 22:15:01 80° NW 22:18:54 10° NE
NOSS 2-1 (D) 4.1 22:13:20 10° NW 22:18:00 70° SW 22:21:25 27° SSE
Sich 1 Rocket 3.9 22:16:54 10° N 22:21:26 60° ENE 22:23:17 33° SE
Okean 1-7 3.0 22:21:21 31° SSW 22:23:18 76° W 22:27:39 10° N
COSMOS 2487 2.5 22:20:47 10° NNW 22:24:11 67° ENE 22:24:59 47° SE
Cosmos 2344 4.3 22:17:36 10° NW 22:26:37 74° SW 22:35:50 20° SSE
Spot 4 3.9 22:24:53 32° S 22:27:06 71° WSW 22:31:58 10° NNW
Okean 2 Rocket 3.5 22:25:25 10° N 22:29:44 51° ENE 22:31:30 31° SE
Cosmos 2242 Rocket 3.9 22:27:54 27° SSW 22:30:15 61° WNW 22:34:44 10° N
Cosmos 1726 4.4 22:29:40 10° NNE 22:32:07 17° ENE 22:33:55 13° E
Cosmos 1400 Rocket 4.2 22:28:29 10° N 22:32:10 31° ENE 22:33:54 22° ESE
Cosmos 2151 Rocket 4.3 22:27:52 10° N 22:32:13 44° ENE 22:34:08 28° SE
Cosmos 2150 Rocket 4.2 22:28:55 20° SW 22:32:43 72° WNW 22:37:59 10° NNE
Cosmos 1125 Rocket 3.5 22:31:08 24° SSW 22:34:18 84° WNW 22:39:33 10° NNE
ISS -3.9 22:31:26 10° W 22:34:49 86° SSW 22:36:27 28° E
Cosmos 1703 Rocket 4.0 22:34:26 26° SW 22:36:43 56° WNW 22:41:06 10° N
Cosmos 1782 Rocket 4.0 22:32:52 10° NNW 22:37:12 51° W 22:38:55 32° SSW
Cosmos 1378 3.1 22:38:54 44° SSW 22:39:59 78° W 22:43:44 10° N
SAR-Lupe-2 3.8 22:41:24 10° NNE 22:44:56 51° E 22:45:30 46° SE
Cosmos 1607 4.5 22:41:29 10° WSW 22:47:54 63° NW 22:54:23 10° NE
Cosmos 724 4.4 22:46:12 19° SW 22:50:49 86° SE 22:57:08 10° NE
Lacrosse 5 1.8 22:48:53 25° SW 22:51:45 63° SE 22:56:47 10° ENE
Cosmos 1934 Rocket 3.9 22:46:03 10° N 22:52:13 87° W 22:55:20 31° S
Cosmos 1805 3.2 22:50:49 10° NNW 22:54:42 72° W 22:55:42 47° SSW
Timation 2 Rocket 4.4 22:52:08 10° NNW 22:58:02 55° NE 23:02:58 15° SE
Cosmos 1066 Rocket 4.2 22:55:52 30° SSW 22:58:48 84° WNW 23:04:24 10° NNE
Cosmos 1356 Rocket 4.5 22:56:27 10° NNW 23:00:25 37° W 23:01:50 28° SW
Cosmos 2227 Rocket 2.8 22:57:26 10° NNW 23:02:58 52° NE 23:07:26 16° SE
SeaSat 1 4.1 23:00:55 10° ENE 23:04:24 19° ESE 23:05:37 17° ESE
Cosmos 2297 Rocket 2.5 22:59:11 10° NNW 23:04:51 65° NE 23:08:40 21° SE
Meteor 2-10 4.3 23:01:48 10° N 23:07:05 61° ENE 23:09:41 28° SE
MTI 3.4 23:04:12 10° NNE 23:07:13 85° WNW 23:07:24 77° SW
Okean 3 4.1 23:06:38 29° SW 23:08:24 48° WNW 23:12:31 10° N
Cosmos 1766 3.4 23:12:22 10° NNW 23:16:16 61° W 23:17:13 45° SSW
Okean 1 Rocket 3.3 23:13:26 10° N 23:17:47 60° ENE 23:19:30 34° SE
Cosmos 1674 Rocket 3.7 23:19:33 39° SSE 23:21:03 64° E 23:25:30 10° NNE
Okean 2 4.0 23:23:28 35° SE 23:24:41 47° E 23:28:42 10° NNE
Cosmos 2221 Rocket 3.7 23:23:40 36° SSW 23:25:27 70° WNW 23:30:01 10° N
COSMOS 2455 2.9 23:19:48 10° NW 23:25:46 63° WSW 23:28:40 31° S
Helios 1A 4.3 23:24:53 18° ESE 23:27:21 34° ENE 23:31:08 10° N
Resurs 1-4 Rocket 4.3 23:25:34 10° NE 23:28:13 14° E 23:30:52 10° ESE
USA 215 3.3 23:22:26 10° ESE 23:28:59 82° NNE 23:35:33 10° WNW
Nimbus 7 Rocket 4.4 23:23:23 10° NNE 23:29:18 81° WNW 23:32:33 29° SSW
ALOS 2 3.8 23:29:20 25° SW 23:30:38 30° W 23:34:32 10° NNW
TSX-5 3.8 23:28:10 10° NNW 23:31:35 69° NE 23:33:15 32° SE
USA 81 4.1 23:28:52 10° N 23:34:09 72° W 23:36:30 34° SSW
Cosmos 1470 2.7 23:31:26 10° N 23:35:24 80° E 23:36:35 44° SSE
Cosmos 1953 4.0 23:34:15 10° N 23:37:44 28° ENE 23:40:09 16° ESE
CZ-2D R/B 4.2 23:34:50 10° NE 23:38:10 16° E 23:41:28 10° SE
Cosmos 371 Rocket 4.1 23:36:48 29° SSE 23:38:31 39° ESE 23:43:04 10° NE
Cosmos 1727 Rocket 4.2 23:36:38 29° S 23:40:02 69° E 23:46:22 10° NNE
Cosmos 2251 Rocket 3.4 23:34:54 10° NNW 23:40:11 89° WSW 23:42:53 30° SSE
EO 1 Del DPAF 3.3 23:41:19 10° NNE 23:45:02 63° ESE 23:45:57 45° SSE
SL-24 R/B 4.3 23:43:25 30° SE 23:45:24 67° ENE 23:49:38 10° N
Cosmos 1842 3.3 23:46:42 44° SSW 23:47:49 70° WNW 23:51:43 10° N
Cosmos 2263 Rocket 4.0 23:44:14 10° NNW 23:49:11 30° NE 23:54:07 10° ESE
Thor Agena Rocket 3.7 23:44:47 10° NNE 23:50:02 69° WNW 23:52:46 29° SW
Cosmos 1455 Rocket 3.9 23:46:36 10° N 23:50:48 44° ENE 23:53:16 22° SE
Meteor 1-21 4.3 23:48:27 30° S 23:51:23 72° E 23:57:09 10° NNE
ATLAS CENTAUR R/B 3.8 23:51:37 10° WNW 23:54:30 20° NNW 23:57:29 10° NNE
